Waarnemingen

Advertentie
Mijn weer
Santiago de Compostela/Labacolla, Spanje (8042): temperatuur & dauwpunt: 17.11.2017 12:00:00 - 23.11.2017 12:00:00 (CET)Santiago de Compostela/Labacolla, Spanje (8042): windsnelheid & windstoten: 17.11.2017 12:00:00 - 23.11.2017 12:00:00 (CET)Santiago de Compostela/Labacolla, Spanje (8042): windrichting: 17.11.2017 12:00:00 - 23.11.2017 12:00:00 (CET)Santiago de Compostela/Labacolla, Spanje (8042): luchtdruk: 17.11.2017 12:00:00 - 23.11.2017 12:00:00 (CET)Santiago de Compostela/Labacolla, Spanje (8042): zicht: 17.11.2017 12:00:00 - 23.11.2017 12:00:00 (CET)
Datum & Tijd tt [°C] td [°C] ff [km/u] ff [kn] fx [km/u] fx [kn] dd ppp [hPa] vv [km]
23.11.2017 12:00:00 14,5 12,1 18 10 - - Z 1012,6 18
23.11.2017 11:00:00 14,2 12,3 16 9 - - Z 1012,2 15
23.11.2017 10:00:00 13,2 11,9 16 9 - - Z 1011,8 25
23.11.2017 09:00:00 13,0 12,1 15 8 - - ZZW 1011,3 10
23.11.2017 08:00:00 12,9 12,1 11 6 - - Z 1010,6 9
23.11.2017 07:00:00 13,1 12,2 16 9 - - ZZW 1009,8 15
23.11.2017 06:00:00 13,1 12,5 11 6 - - ZZW 1009,1 8
23.11.2017 05:00:00 13,2 12,4 15 8 - - ZW 1008,4 9
23.11.2017 04:00:00 13,3 12,8 11 6 - - ZZW 1007,9 7
23.11.2017 03:00:00 13,4 12,8 15 8 - - ZW 1007,1 8
23.11.2017 02:00:00 13,5 13,2 8 4 - - ZZW 1006,7 -
23.11.2017 01:00:00 13,5 13,0 15 8 - - ZW 1006,7 8
23.11.2017 00:00:00 14,1 13,0 22 12 - - ZW 1006,1 6
22.11.2017 23:00:00 14,1 13,0 26 14 - - ZW 1005,9 9
22.11.2017 22:00:00 14,0 13,5 24 13 - - ZW 1005,7 7
22.11.2017 21:00:00 13,6 12,8 22 12 - - ZW 1005,3 3,2
22.11.2017 20:00:00 13,3 12,8 28 15 - - ZW 1005,0 7
22.11.2017 19:00:00 15,1 11,3 31 17 - - ZZW 1003,5 10
22.11.2017 18:00:00 16,8 7,4 37 20 83 45 ZW 1003,4 21
22.11.2017 17:00:00 17,7 3,6 35 19 - - ZW 1002,8 30
22.11.2017 16:00:00 17,9 4,3 26 14 - - ZZW 1003,0 30
22.11.2017 15:00:00 18,5 4,6 35 19 - - Z 1002,8 30
22.11.2017 14:00:00 17,5 5,7 34 18 - - Z 1004,1 30
22.11.2017 13:00:00 16,0 7,2 28 15 - - Z 1006,7 30
22.11.2017 12:00:00 15,4 6,7 16 9 - - ZZW 1007,6 30
22.11.2017 11:00:00 14,8 5,8 22 12 - - ZZW 1008,2 30
22.11.2017 10:00:00 13,6 5,2 22 12 - - Z 1008,7 30
22.11.2017 09:00:00 11,6 4,6 9 5 - - ZZO 1009,2 30
22.11.2017 08:00:00 10,4 5,0 5 3 - - ZO 1009,6 30
22.11.2017 07:00:00 10,3 6,2 4 2 - - Z 1010,2 25
22.11.2017 06:00:00 11,4 6,5 13 7 - - Z 1011,0 30
22.11.2017 05:00:00 11,9 7,6 16 9 - - ZZW 1011,6 30
22.11.2017 04:00:00 11,6 8,3 16 9 - - ZZW 1012,4 25
22.11.2017 03:00:00 11,1 8,5 15 8 - - Z 1012,9 18
22.11.2017 02:00:00 11,3 9,0 11 6 - - ZZW 1013,7 20
22.11.2017 01:00:00 11,3 9,1 13 7 - - ZZW 1014,5 18
22.11.2017 00:00:00 10,5 6,6 8 4 - - ZO 1015,3 30
21.11.2017 23:00:00 11,7 6,2 15 8 - - ZZO 1015,6 30
21.11.2017 22:00:00 11,4 5,3 13 7 - - ZZW 1016,2 25
21.11.2017 21:00:00 12,1 4,3 13 7 - - ZZW 1016,5 30
21.11.2017 20:00:00 12,2 4,9 9 5 - - ZZW 1016,7 30
21.11.2017 19:00:00 12,5 5,2 13 7 - - ZW 1017,1 30
21.11.2017 18:00:00 13,2 5,3 11 6 - - ZW 1017,0 30
21.11.2017 17:00:00 15,9 5,2 9 5 - - ZZW 1016,7 30
21.11.2017 16:00:00 16,7 5,3 18 10 - - Z 1016,5 30
21.11.2017 15:00:00 17,1 7,7 4 2 - - Z 1017,3 30
21.11.2017 14:00:00 16,8 7,2 5 3 - - ZZO 1018,0 30
21.11.2017 13:00:00 15,4 5,4 5 3 - - ZZO 1019,1 30
21.11.2017 12:00:00 13,6 4,1 4 2 - - ZZO 1020,6 30
21.11.2017 11:00:00 12,0 2,1 9 5 - - ZZO 1021,0 30
21.11.2017 10:00:00 9,9 1,3 11 6 - - ZZO 1021,5 30
21.11.2017 09:00:00 8,0 0,5 11 6 - - Z 1021,8 30
21.11.2017 08:00:00 7,4 0,7 9 5 - - Z 1021,5 30
21.11.2017 07:00:00 7,5 0,7 8 4 - - Z 1021,6 30
21.11.2017 06:00:00 7,8 1,0 5 3 - - ZZO 1021,5 30
21.11.2017 05:00:00 8,1 1,2 5 3 - - ZZO 1021,6 30
21.11.2017 04:00:00 7,4 1,4 2 1 - - ZZO 1021,9 30
21.11.2017 03:00:00 7,2 1,8 4 2 - - ZZO 1021,9 30
21.11.2017 02:00:00 8,0 2,7 8 4 - - ZZO 1022,1 30
21.11.2017 01:00:00 8,1 3,3 4 2 - - Z 1022,5 30
21.11.2017 00:00:00 9,0 4,4 4 2 - - Z 1022,4 30
20.11.2017 23:00:00 9,5 4,7 5 3 - - Z 1022,6 30
20.11.2017 22:00:00 9,5 5,7 5 3 - - Z 1022,7 30
20.11.2017 21:00:00 9,9 6,1 5 3 - - Z 1022,9 30
20.11.2017 20:00:00 11,8 3,6 4 2 - - Z 1022,6 30
20.11.2017 19:00:00 12,7 2,7 9 5 - - ZZW 1022,2 30
20.11.2017 18:00:00 13,0 3,4 8 4 - - ZW 1021,9 30
20.11.2017 17:00:00 14,9 3,4 8 4 - - ZW 1021,8 30
20.11.2017 16:00:00 17,0 4,3 5 3 - - W 1021,1 30
20.11.2017 15:00:00 16,5 3,9 5 3 - - W 1021,3 30
20.11.2017 14:00:00 16,7 2,9 5 3 - - Z 1021,5 30
20.11.2017 13:00:00 14,9 3,4 5 3 - - ZZO 1022,5 30
20.11.2017 12:00:00 12,6 0,5 5 3 - - ZZO 1023,6 30
20.11.2017 11:00:00 11,8 -0,3 9 5 - - Z 1023,9 30
20.11.2017 10:00:00 9,8 -0,5 9 5 - - Z 1024,1 30
20.11.2017 09:00:00 7,5 -0,7 11 6 - - Z 1024,4 30
20.11.2017 08:00:00 8,2 -0,5 4 2 - - Z 1024,1 40
20.11.2017 07:00:00 8,1 -0,4 4 2 - - Z 1023,8 30
20.11.2017 06:00:00 8,3 0,1 5 3 - - ZZO 1023,4 30
20.11.2017 05:00:00 7,5 0,9 4 2 - - Z 1023,0 30
20.11.2017 04:00:00 7,9 1,9 4 2 - - Z 1022,9 30
20.11.2017 03:00:00 7,3 4,8 5 3 - - Z 1023,1 30
20.11.2017 02:00:00 8,5 4,7 5 3 - - Z 1023,5 30
20.11.2017 01:00:00 5,9 5,0 5 3 - - NW 1024,4 8
20.11.2017 00:00:00 8,7 7,3 0 0 - - N 1023,9 20
19.11.2017 23:00:00 11,1 8,1 4 2 - - ZZO 1023,5 30
19.11.2017 22:00:00 10,6 7,8 8 4 - - Z 1023,4 30
19.11.2017 21:00:00 11,0 8,2 0 0 - - N 1023,3 30
19.11.2017 20:00:00 12,6 8,1 0 0 - - N 1023,0 30
19.11.2017 19:00:00 13,5 8,8 0 0 - - N 1022,4 40
19.11.2017 18:00:00 14,3 9,4 5 3 - - WNW 1021,8 30
19.11.2017 17:00:00 18,0 9,3 4 2 - - N 1021,1 30
19.11.2017 16:00:00 19,3 7,4 0 0 - - N 1020,6 40
19.11.2017 15:00:00 18,3 7,5 0 0 - - N 1021,1 30
19.11.2017 14:00:00 18,3 6,9 0 0 - - N 1021,5 40
19.11.2017 13:00:00 16,6 6,8 5 3 - - ZZO 1022,3 40
19.11.2017 12:00:00 14,4 5,9 4 2 - - ZO 1023,1 30
19.11.2017 11:00:00 12,9 6,4 2 1 - - ZO 1023,0 30
19.11.2017 10:00:00 11,3 5,2 4 2 - - ZZO 1023,1 40
19.11.2017 09:00:00 9,2 3,8 0 0 - - N 1022,9 30
19.11.2017 08:00:00 7,9 3,0 0 0 - - N 1022,5 30
19.11.2017 07:00:00 7,9 3,9 4 2 - - ZO 1022,2 30
19.11.2017 06:00:00 7,6 4,4 2 1 - - ZO 1022,3 30
19.11.2017 05:00:00 7,6 5,0 2 1 - - ZZO 1022,2 30
19.11.2017 04:00:00 8,0 6,1 0 0 - - N 1022,5 15
19.11.2017 03:00:00 7,7 5,9 4 2 - - ZZO 1022,3 12
19.11.2017 02:00:00 8,0 6,8 0 0 - - N 1022,5 13
19.11.2017 01:00:00 7,9 6,5 0 0 - - N 1022,4 15
19.11.2017 00:00:00 8,5 6,8 0 0 - - N 1022,2 18
18.11.2017 23:00:00 8,7 7,1 2 1 - - OZO 1022,3 16
18.11.2017 22:00:00 9,5 7,1 8 4 - - OZO 1022,2 30
18.11.2017 21:00:00 10,7 7,2 4 2 - - OZO 1022,1 30
18.11.2017 20:00:00 12,1 6,9 4 2 - - OZO 1021,9 30
18.11.2017 19:00:00 12,4 8,3 0 0 - - N 1021,5 30
18.11.2017 18:00:00 15,0 8,9 0 0 - - N 1020,9 30
18.11.2017 17:00:00 17,8 9,3 0 0 - - N 1020,2 30
18.11.2017 16:00:00 18,4 7,5 0 0 - - N 1019,9 40
18.11.2017 15:00:00 17,8 6,8 2 1 - - ONO 1020,3 30
18.11.2017 14:00:00 17,2 8,2 0 0 - - N 1020,8 40
18.11.2017 13:00:00 15,8 7,3 4 2 - - O 1021,6 40
18.11.2017 12:00:00 13,6 6,7 4 2 - - O 1022,3 30
18.11.2017 11:00:00 11,1 6,3 8 4 - - OZO 1022,6 27
18.11.2017 10:00:00 9,4 5,6 8 4 - - O 1022,9 6
18.11.2017 09:00:00 6,9 5,3 8 4 - - OZO 1022,8 15
18.11.2017 08:00:00 6,2 4,7 2 1 - - O 1022,5 10
18.11.2017 07:00:00 7,0 5,5 5 3 - - OZO 1022,1 4,0
18.11.2017 06:00:00 6,3 5,6 2 1 - - O 1022,2 7
18.11.2017 05:00:00 6,3 5,3 2 1 - - ONO 1022,4 -
18.11.2017 04:00:00 6,8 5,7 0 0 - - N 1022,6 6
18.11.2017 03:00:00 7,5 6,3 4 2 - - OZO 1022,2 6
18.11.2017 02:00:00 6,9 5,8 5 3 - - OZO 1022,9 4,9
18.11.2017 01:00:00 7,4 5,9 0 0 - - N 1023,3 9
18.11.2017 00:00:00 8,3 6,6 4 2 - - OZO 1022,9 11
17.11.2017 23:00:00 8,3 6,8 0 0 - - N 1023,3 10
17.11.2017 22:00:00 9,6 7,0 2 1 - - OZO 1022,4 15
17.11.2017 21:00:00 10,1 8,0 0 0 - - N 1022,2 17
17.11.2017 20:00:00 12,0 9,2 0 0 - - N 1022,0 24
17.11.2017 19:00:00 12,3 9,5 0 0 - - N 1021,5 30
17.11.2017 18:00:00 13,3 10,1 4 2 - - N 1021,1 24
17.11.2017 17:00:00 16,0 11,0 0 0 - - N 1020,5 23
17.11.2017 16:00:00 16,7 10,1 4 2 - - N 1020,5 30
17.11.2017 15:00:00 16,6 9,2 0 0 - - N 1020,7 30
17.11.2017 14:00:00 16,3 9,6 2 1 - - O 1021,0 30
17.11.2017 13:00:00 14,6 9,7 2 1 - - ONO 1021,8 30
17.11.2017 12:00:00 12,4 8,7 4 2 - - O 1022,8 21

tt = temperatuur
td = dauwpunt
ff = windsnelheid
fx = windstoten
dd = windrichting
ppp = luchtdruk
vv = zicht

Weerstations in de omgeving